Total_Precipitation_Accumulation
0.00 0.00 0.00 0.00 0.00 0.00 0.00 0.00 0.00 0.00 0.00 0.00 0.00 0.00 0.00 0.00 0.00 0.00 0.00 0.00 0.00 0.00 0.01 0.01 0.01 0.00 0.00 0.01 0.02 0.04 0.04 0.03 0.02 0.02 0.03 0.03 0.03 0.03 0.04 0.06 0.08 0.09 0.10
0.00 0.00 0.00 0.00 0.00 0.00 0.00 0.00 0.00 0.00 0.00 0.00 0.00 0.00 0.00 0.00 0.00 0.00 0.00 0.00 0.00 0.00 0.00 0.01 0.01 0.01 0.01 0.01 0.01 0.01 0.01 0.01 0.01 0.00 0.01 0.00 0.01 0.01 0.02 0.03 0.05 0.07 0.09
0.00 0.00 0.00 0.00 0.00 0.00 0.00 0.00 0.00 0.00 0.00 0.00 0.00 0.00 0.00 0.00 0.00 0.00 0.00 0.00 0.00 0.00 0.00 0.00 0.01 0.01 0.02 0.02 0.02 0.02 0.01 0.01 0.00 0.00 0.00 0.00 0.00 0.00 0.00 0.00 0.01 0.03 0.05
0.00 0.00 0.00 0.00 0.00 0.00 0.00 0.00 0.00 0.00 0.01 0.01 0.01 0.01 0.00 0.00 0.00 0.00 0.00 0.00 0.00 0.00 0.00 0.00 0.01 0.01 0.02 0.03 0.04 0.06 0.05 0.03 0.02 0.01 0.00 0.00 0.00 0.00 0.00 0.00 0.00 0.00 0.01
0.03 0.01 0.01 0.01 0.01 0.01 0.01 0.01 0.01 0.01 0.02 0.02 0.02 0.01 0.00 0.00 0.00 0.00 0.00 0.00 0.00 0.00 0.00 0.00 0.00 0.01 0.02 0.02 0.03 0.07 0.09 0.08 0.05 0.03 0.02 0.01 0.01 0.00 0.00 0.00 0.00 0.00 0.00
0.07 0.05 0.03 0.02 0.02 0.02 0.02 0.02 0.03 0.02 0.02 0.03 0.02 0.01 0.00 0.00 0.00 0.00 0.00 0.01 0.00 0.01 0.01 0.01 0.01 0.01 0.01 0.02 0.02 0.04 0.08 0.12 0.11 0.07 0.04 0.03 0.02 0.01 0.01 0.00 0.01 0.01 0.01
0.12 0.09 0.06 0.04 0.03 0.03 0.03 0.04 0.05 0.05 0.04 0.04 0.04 0.02 0.01 0.01 0.00 0.00 0.01 0.00 0.00 0.01 0.01 0.01 0.01 0.01 0.01 0.01 0.02 0.03 0.05 0.10 0.15 0.15 0.11 0.07 0.04 0.03 0.02 0.02 0.02 0.02 0.02
0.15 0.13 0.10 0.09 0.08 0.07 0.06 0.06 0.07 0.08 0.08 0.08 0.09 0.08 0.03 0.01 0.00 0.00 0.01 0.00 0.01 0.01 0.01 0.02 0.02 0.02 0.02 0.02 0.01 0.02 0.03 0.06 0.13 0.19 0.19 0.15 0.11 0.07 0.06 0.06 0.06 0.06 0.06
0.18 0.16 0.16 0.16 0.14 0.13 0.10 0.09 0.11 0.12 0.11 0.11 0.12 0.14 0.09 0.03 0.01 0.01 0.01 0.01 0.01 0.01 0.02 0.03 0.03 0.03 0.03 0.02 0.02 0.02 0.02 0.03 0.07 0.15 0.21 0.23 0.20 0.17 0.15 0.14 0.13 0.14 0.13
0.20 0.20 0.21 0.21 0.20 0.18 0.15 0.15 0.16 0.16 0.15 0.13 0.12 0.10 0.10 0.08 0.07 0.04 0.01 0.02 0.02 0.02 0.03 0.04 0.04 0.04 0.03 0.03 0.03 0.03 0.04 0.04 0.05 0.10 0.18 0.25 0.30 0.31 0.30 0.28 0.27 0.26 0.24
0.19 0.21 0.23 0.23 0.21 0.20 0.21 0.24 0.24 0.23 0.21 0.19 0.17 0.15 0.16 0.11 0.08 0.09 0.06 0.04 0.04 0.05 0.05 0.05 0.04 0.04 0.05 0.05 0.05 0.06 0.08 0.09 0.10 0.13 0.19 0.27 0.37 0.45 0.51 0.51 0.48 0.45 0.39
0.15 0.18 0.21 0.21 0.22 0.23 0.26 0.29 0.32 0.32 0.31 0.27 0.24 0.21 0.23 0.21 0.15 0.15 0.15 0.10 0.09 0.09 0.07 0.06 0.06 0.06 0.08 0.09 0.10 0.14 0.16 0.18 0.20 0.23 0.27 0.35 0.45 0.56 0.67 0.74 0.72 0.65 0.55
0.12 0.14 0.18 0.21 0.24 0.28 0.34 0.38 0.38 0.37 0.39 0.36 0.31 0.29 0.30 0.29 0.27 0.26 0.25 0.17 0.13 0.10 0.09 0.08 0.09 0.10 0.11 0.12 0.15 0.21 0.26 0.30 0.32 0.35 0.40 0.48 0.56 0.60 0.67 0.75 0.84 0.89 0.87
0.19 0.23 0.26 0.29 0.32 0.36 0.37 0.40 0.41 0.42 0.44 0.42 0.38 0.35 0.32 0.29 0.29 0.30 0.30 0.32 0.28 0.21 0.17 0.17 0.17 0.18 0.20 0.23 0.28 0.35 0.38 0.46 0.49 0.52 0.57 0.64 0.68 0.67 0.65 0.66 0.72 0.80 0.84
0.20 0.24 0.28 0.31 0.32 0.33 0.35 0.38 0.39 0.40 0.42 0.41 0.40 0.39 0.36 0.33 0.33 0.34 0.36 0.42 0.50 0.47 0.37 0.29 0.29 0.32 0.35 0.39 0.45 0.47 0.47 0.56 0.62 0.64 0.68 0.70 0.70 0.65 0.61 0.60 0.60 0.61 0.63
0.14 0.18 0.23 0.25 0.26 0.27 0.29 0.32 0.33 0.35 0.37 0.37 0.38 0.39 0.39 0.37 0.37 0.38 0.42 0.48 0.56 0.64 0.61 0.46 0.40 0.42 0.48 0.52 0.59 0.56 0.53 0.60 0.60 0.61 0.63 0.63 0.57 0.52 0.48 0.47 0.48 0.51 0.54
0.12 0.15 0.18 0.21 0.21 0.22 0.23 0.24 0.24 0.26 0.29 0.31 0.32 0.34 0.37 0.37 0.39 0.41 0.46 0.52 0.60 0.68 0.74 0.65 0.56 0.54 0.55 0.53 0.52 0.47 0.43 0.43 0.42 0.49 0.50 0.48 0.43 0.40 0.39 0.40 0.41 0.42 0.43
0.11 0.12 0.15 0.16 0.16 0.17 0.18 0.19 0.20 0.21 0.23 0.26 0.29 0.33 0.36 0.37 0.39 0.41 0.45 0.51 0.57 0.62 0.65 0.64 0.55 0.49 0.45 0.41 0.37 0.33 0.29 0.27 0.26 0.32 0.35 0.36 0.35 0.33 0.33 0.33 0.33 0.35 0.38
0.11 0.11 0.11 0.12 0.13 0.13 0.14 0.16 0.18 0.20 0.21 0.23 0.24 0.27 0.29 0.31 0.34 0.36 0.38 0.42 0.45 0.46 0.47 0.45 0.41 0.36 0.32 0.29 0.26 0.21 0.18 0.16 0.14 0.17 0.19 0.20 0.21 0.21 0.22 0.23 0.24 0.25 0.24
0.10 0.09 0.07 0.07 0.07 0.08 0.09 0.12 0.14 0.16 0.18 0.18 0.19 0.21 0.23 0.27 0.31 0.35 0.37 0.38 0.38 0.36 0.34 0.34 0.33 0.28 0.23 0.19 0.16 0.13 0.11 0.09 0.08 0.07 0.08 0.08 0.08 0.09 0.09 0.09 0.09 0.08 0.08
0.06 0.05 0.06 0.06 0.06 0.06 0.07 0.08 0.10 0.13 0.17 0.21 0.25 0.29 0.33 0.38 0.39 0.36 0.32 0.29 0.27 0.27 0.28 0.30 0.26 0.20 0.16 0.12 0.10 0.08 0.08 0.07 0.05 0.03 0.03 0.02 0.02 0.02 0.02 0.02 0.02 0.02 0.03
0.07 0.06 0.07 0.08 0.10 0.13 0.19 0.17 0.14 0.15 0.21 0.26 0.30 0.33 0.36 0.38 0.34 0.31 0.27 0.23 0.23 0.26 0.27 0.25 0.19 0.13 0.08 0.06 0.06 0.06 0.07 0.08 0.05 0.01 0.01 0.01 0.00 0.00 0.00 0.00 0.00 0.01 0.03
0.18 0.18 0.19 0.20 0.22 0.30 0.37 0.32 0.31 0.26 0.27 0.29 0.29 0.28 0.25 0.22 0.20 0.16 0.16 0.17 0.19 0.18 0.15 0.12 0.07 0.04 0.03 0.03 0.06 0.09 0.08 0.09 0.06 0.01 0.01 0.01 0.00 0.00 0.00 0.00 0.00 0.01 0.02
0.38 0.40 0.42 0.43 0.44 0.47 0.45 0.37 0.32 0.28 0.27 0.26 0.23 0.19 0.15 0.11 0.08 0.08 0.11 0.14 0.08 0.04 0.03 0.02 0.02 0.02 0.02 0.03 0.06 0.12 0.11 0.08 0.03 0.00 0.00 0.01 0.00 0.00 0.00 0.00 0.00 0.00 0.01
0.68 0.65 0.60 0.54 0.50 0.48 0.42 0.32 0.26 0.22 0.19 0.16 0.12 0.09 0.06 0.04 0.04 0.08 0.10 0.07 0.02 0.01 0.00 0.01 0.02 0.02 0.02 0.03 0.03 0.05 0.08 0.10 0.06 0.00 0.00 0.00 0.00 0.00 0.00 0.00 0.00 0.00 0.00
0.60 0.58 0.54 0.50 0.43 0.35 0.26 0.19 0.14 0.12 0.09 0.06 0.03 0.02 0.02 0.02 0.05 0.08 0.06 0.04 0.02 0.00 0.01 0.01 0.00 0.00 0.00 0.00 0.00 0.02 0.09 0.24 0.19 0.09 0.00 0.03 0.05 0.07 0.13 0.01 0.00 0.00 0.00